Wind_Speed
4 2 1 1 2 2 4 4 5 4 7 8 9 10 11 12 13 14 13 13 14 15 15 16 17 18 19 20 19 19 19 20 21 23 24 25 25 25 24 24 24 24 24 25
3 2 1 1 1 3 4 5 6 6 6 8 10 11 13 14 14 14 13 14 14 15 16 17 17 18 19 20 19 20 19 21 22 23 24 25 25 25 25 24 24 25 25 25
2 2 1 0 2 4 5 7 7 8 8 8 9 10 11 13 14 13 14 15 15 15 15 16 18 18 19 19 20 21 20 21 23 24 24 24 25 25 25 25 25 25 25 26
2 2 2 2 2 4 4 6 7 8 10 9 10 11 12 14 14 14 14 14 15 14 16 18 19 19 20 20 21 21 21 21 21 22 22 23 24 24 24 25 25 25 26 26
1 2 2 3 4 5 6 7 7 8 9 9 10 12 13 14 15 15 13 14 15 15 17 18 19 20 21 21 22 21 21 21 21 21 22 24 24 23 24 24 25 25 25 25
1 3 3 4 6 7 8 8 8 8 9 10 11 13 13 13 15 15 15 16 17 17 18 18 19 20 21 21 21 21 22 22 22 22 23 23 23 23 23 24 23 24 24 25
3 4 4 6 7 9 10 10 10 10 10 10 12 13 14 14 15 15 16 17 17 18 18 18 19 20 20 20 21 21 22 22 23 23 23 23 23 23 23 23 22 23 23 23
5 5 6 8 9 9 10 10 11 11 12 12 13 14 14 14 15 16 17 18 19 20 19 18 19 19 20 20 21 20 22 23 23 23 23 23 23 23 23 22 22 22 22 23
7 6 7 9 10 10 10 11 11 12 13 13 14 14 15 15 16 17 18 19 20 19 19 19 19 18 20 20 21 22 22 22 22 22 23 23 22 22 21 21 22 22 22 22
9 8 8 10 11 11 11 12 12 13 14 16 15 15 16 16 17 18 19 20 20 20 20 19 19 20 20 21 22 23 22 22 22 22 22 21 21 21 21 21 22 22 22 22
10 10 9 10 11 11 11 12 12 13 14 15 15 14 15 17 18 18 19 20 20 20 20 20 21 21 21 22 23 23 23 22 22 21 21 21 20 20 21 22 22 21 21 21
11 11 11 11 11 12 11 12 12 13 15 15 15 16 15 16 18 18 20 20 20 20 21 21 21 21 21 22 22 22 22 22 21 21 20 20 20 21 21 21 20 20 20 21
11 11 11 10 10 11 12 12 13 13 14 15 15 16 16 17 18 19 20 21 21 21 22 22 21 21 21 22 23 22 22 21 20 20 19 19 20 20 20 20 20 20 20 21
11 11 11 11 10 11 12 11 12 13 14 15 15 16 17 17 18 19 20 21 21 21 22 22 21 20 21 21 21 20 20 19 19 19 19 19 19 19 20 20 20 21 21 21
12 11 11 11 11 12 13 13 12 13 14 15 16 16 17 17 17 18 19 20 21 21 22 22 21 21 21 21 21 20 20 19 20 19 19 19 19 19 20 21 21 21 21 21
13 12 12 11 12 13 14 14 14 13 14 15 16 16 16 17 17 18 19 20 21 22 22 21 21 21 21 21 20 20 20 20 19 19 19 19 19 20 20 21 22 22 22 22
15 14 13 13 12 13 14 14 14 14 15 16 17 17 18 18 18 19 20 20 20 21 21 21 21 20 21 20 20 20 20 20 19 19 19 19 20 20 21 22 22 22 21 21
15 15 15 15 14 15 15 15 14 14 15 16 17 17 18 19 20 21 21 20 20 20 21 21 21 20 20 19 19 20 20 20 20 20 20 20 20 21 21 21 21 20 20 21
15 15 15 16 16 16 15 15 15 15 15 17 18 19 19 20 21 21 21 21 21 21 21 21 21 21 20 19 20 20 20 20 21 20 20 20 20 20 20 20 20 20 20 21
16 15 16 17 18 18 16 16 16 16 17 18 19 20 21 21 22 22 22 21 21 21 21 21 21 21 20 20 20 20 20 20 19 19 19 19 20 20 20 20 20 20 20 20
16 17 17 18 20 19 18 17 17 17 18 19 20 20 21 22 22 23 22 22 21 21 21 21 21 21 20 20 20 19 19 18 18 18 19 19 19 20 20 19 19 19 18 18
18 18 18 19 20 19 19 18 18 18 19 19 20 21 21 22 22 21 21 22 21 21 21 21 20 20 19 19 19 18 19 18 18 18 18 18 19 19 19 19 19 18 17 18
19 19 19 19 19 19 19 19 19 20 20 20 21 21 21 22 21 21 21 21 21 21 21 20 20 19 18 18 18 19 19 19 18 18 18 18 18 18 18 18 17 17 17 17
19 19 20 20 20 20 20 20 20 21 21 21 21 21 22 22 21 21 21 21 20 20 20 20 19 18 18 18 18 19 19 18 17 17 17 17 18 17 17 16 16 16 17 17
20 20 21 21 20 21 21 21 21 22 22 22 22 23 23 23 23 22 22 21 20 19 19 19 19 19 19 19 18 18 17 16 16 16 16 16 16 16 15 15 15 16 17 17
22 22 22 22 21 22 22 22 21 22 22 23 23 23 24 24 23 22 22 21 20 20 20 20 20 19 19 18 17 17 17 16 16 16 15 15 16 15 14 13 14 15 15 16
Wind_Direction
117 106 139 275 302 304 297 308 315 306 297 296 294 294 292 294 295 296 295 302 306 308 308 308 308 308 304 303 299 297 298 300 297 297 299 298 298 296 298 296 296 297 297 297
103 101 88 232 293 318 306 319 316 310 300 298 298 297 295 299 296 298 297 300 305 309 312 311 311 311 308 305 301 301 300 299 298 298 298 298 298 298 297 298 297 297 297 297
77 65 78 200 318 328 325 332 326 312 308 305 302 301 296 295 299 298 298 297 300 304 310 312 314 313 309 307 305 306 304 300 299 299 299 299 298 297 296 296 297 296 295 296
66 48 33 22 7 359 336 321 314 307 305 307 310 313 309 305 306 302 300 299 297 303 310 311 314 313 311 312 311 309 306 303 302 301 302 303 300 298 297 296 296 298 298 297
34 33 10 355 344 331 323 316 306 302 295 298 306 313 318 314 314 309 306 305 304 307 310 312 317 317 315 312 312 310 309 307 305 304 303 303 302 299 298 297 299 300 300 299
321 329 315 319 320 316 316 313 307 307 304 306 307 308 313 319 319 315 310 311 314 314 312 314 316 316 314 312 311 309 308 308 306 306 305 304 302 301 300 300 301 301 301 301
262 285 289 300 308 310 306 308 305 308 309 310 311 311 314 318 320 317 318 319 317 316 314 315 317 314 314 311 309 309 309 309 307 306 305 305 304 304 304 302 303 303 303 302
278 284 293 303 306 312 306 304 308 308 311 308 308 311 315 315 319 317 318 319 318 316 315 312 314 314 315 313 313 313 312 311 309 309 308 306 305 304 305 304 304 305 305 303
297 293 294 297 302 305 304 300 303 307 313 315 310 307 310 314 319 321 321 321 320 319 319 313 313 314 314 314 314 314 315 313 311 311 309 307 307 307 308 307 307 307 307 306
299 298 290 295 298 300 300 299 303 306 311 313 309 307 310 312 318 322 323 322 320 320 319 319 316 315 315 313 312 312 312 311 310 308 308 308 308 308 309 309 308 308 307 307
298 294 290 289 293 298 299 297 299 304 309 312 313 315 317 314 318 321 324 325 322 321 321 319 318 315 313 313 312 312 313 312 310 309 309 308 309 309 309 310 310 311 310 310
299 294 292 291 289 294 297 296 298 301 305 310 315 318 320 317 318 320 323 326 326 323 323 321 318 316 315 315 315 314 315 315 313 313 312 312 312 312 310 310 311 313 314 312
298 295 295 293 286 288 293 293 294 298 303 311 316 318 320 320 320 321 324 325 324 323 322 321 320 318 318 319 320 319 318 318 317 317 315 314 314 314 315 315 314 314 312 312
294 292 293 293 290 289 288 289 294 297 301 309 316 318 319 318 319 320 322 325 325 324 323 323 323 323 324 324 323 322 319 318 319 319 317 316 315 316 317 316 316 316 314 313
292 290 291 292 289 290 295 296 295 295 299 304 312 316 318 316 317 321 324 326 326 327 328 328 327 325 324 325 324 324 323 322 321 321 320 320 319 319 319 320 319 317 316 315
293 291 288 285 284 288 295 297 297 298 300 305 312 316 317 319 318 321 327 328 328 327 327 327 325 324 323 323 323 324 324 324 323 323 322 322 321 322 322 322 321 319 318 318
291 289 285 281 280 288 293 298 298 300 302 305 310 313 315 316 318 322 325 326 326 326 324 323 323 323 323 323 322 322 322 323 323 323 323 323 323 322 323 323 323 322 320 318
290 286 284 283 285 288 296 298 298 301 302 305 308 310 312 314 316 318 320 321 323 322 323 322 321 322 323 323 323 323 324 324 323 323 324 323 324 325 325 326 327 328 326 323
286 285 284 283 285 290 293 299 301 302 303 304 306 307 309 312 314 317 318 319 319 319 321 320 321 321 322 321 322 323 323 323 324 325 326 327 327 328 328 329 329 329 328 327
281 281 283 284 287 292 292 295 299 299 301 304 306 306 307 311 314 316 316 316 317 318 320 319 320 321 320 319 319 321 322 324 325 326 327 329 330 330 330 330 330 331 331 332
281 280 282 284 287 291 293 296 299 300 304 305 306 306 308 312 314 315 315 316 316 318 319 320 319 318 317 318 320 321 323 324 325 327 328 330 332 332 333 334 334 335 337 339
278 279 281 283 286 288 291 293 295 298 301 302 304 306 308 311 313 314 314 314 314 315 318 319 318 317 318 318 319 321 322 324 324 326 328 330 333 335 338 339 339 340 342 344
275 279 281 282 282 283 285 289 293 295 297 299 301 305 308 309 311 311 312 313 314 315 316 317 317 318 319 320 319 321 321 322 323 325 327 329 332 335 338 340 341 343 346 346
273 273 275 277 278 278 282 286 290 293 295 298 301 303 306 308 310 310 310 311 312 313 314 315 316 318 318 319 319 322 322 321 322 324 327 328 331 334 337 341 344 345 346 347
271 271 271 273 275 277 279 283 288 291 294 297 299 302 304 305 307 308 310 310 310 311 311 312 314 314 315 316 317 319 321 321 320 322 324 327 330 333 335 339 343 345 348 349
267 268 271 272 274 276 278 281 285 288 291 294 297 299 301 303 305 307 308 309 308 308 308 309 311 312 314 315 316 318 320 319 319 320 323 326 330 333 334 338 341 345 347 351
Height
5861 5862 5862 5862 5862 5862 5862 5861 5861 5861 5860 5859 5857 5857 5856 5855 5854 5853 5852 5851 5849 5847 5846 5844 5842 5840 5837 5835 5833 5831 5829 5828 5827 5825 5823 5821 5818 5816 5814 5812 5810 5808 5806 5803
5862 5862 5863 5862 5861 5861 5860 5860 5860 5860 5858 5857 5856 5855 5854 5852 5851 5850 5849 5847 5846 5843 5841 5839 5837 5835 5832 5830 5828 5826 5824 5822 5821 5819 5817 5814 5812 5810 5808 5806 5804 5802 5799 5797
5862 5863 5862 5862 5861 5860 5860 5859 5858 5858 5857 5856 5854 5853 5851 5849 5848 5847 5845 5844 5842 5839 5838 5835 5833 5831 5828 5825 5823 5821 5818 5816 5814 5812 5810 5807 5805 5803 5802 5800 5797 5795 5793 5790
5862 5862 5862 5861 5861 5860 5859 5858 5857 5856 5855 5854 5853 5851 5850 5847 5846 5844 5842 5840 5838 5835 5834 5831 5829 5826 5823 5820 5818 5815 5812 5810 5808 5806 5803 5801 5799 5797 5795 5793 5790 5788 5785 5782
5862 5861 5861 5860 5860 5859 5858 5857 5856 5855 5854 5853 5851 5849 5848 5845 5844 5841 5839 5837 5834 5832 5830 5827 5824 5821 5818 5815 5813 5810 5807 5805 5802 5800 5797 5795 5792 5790 5788 5785 5783 5780 5778 5775
5861 5860 5859 5859 5858 5857 5856 5856 5855 5854 5852 5851 5849 5847 5846 5843 5841 5839 5836 5834 5831 5829 5826 5823 5820 5816 5813 5810 5807 5805 5802 5800 5797 5794 5791 5788 5786 5783 5781 5778 5775 5773 5771 5768
5860 5859 5858 5857 5857 5856 5855 5855 5853 5851 5850 5849 5847 5845 5844 5841 5839 5836 5833 5831 5828 5826 5822 5819 5816 5813 5809 5806 5803 5800 5797 5794 5791 5788 5785 5782 5779 5776 5774 5771 5769 5767 5764 5761
5858 5858 5857 5856 5855 5854 5853 5852 5851 5849 5847 5846 5844 5842 5841 5838 5835 5833 5830 5827 5825 5822 5819 5815 5812 5809 5805 5802 5798 5795 5792 5789 5785 5782 5779 5776 5772 5769 5767 5764 5762 5760 5758 5755
5856 5856 5855 5854 5853 5852 5851 5849 5849 5847 5845 5843 5841 5840 5837 5834 5832 5830 5827 5824 5821 5819 5815 5812 5808 5805 5801 5797 5794 5790 5787 5784 5780 5777 5773 5770 5767 5764 5761 5759 5756 5754 5751 5749
5854 5854 5853 5852 5851 5849 5848 5847 5846 5844 5842 5839 5838 5836 5834 5832 5829 5827 5824 5821 5819 5815 5811 5807 5804 5800 5796 5793 5790 5786 5782 5778 5775 5772 5768 5765 5762 5759 5756 5753 5751 5748 5745 5743
5851 5851 5851 5849 5848 5846 5846 5845 5842 5841 5839 5836 5833 5835 5831 5829 5826 5824 5821 5818 5814 5811 5807 5803 5799 5795 5792 5789 5785 5781 5777 5774 5770 5767 5763 5760 5757 5754 5751 5748 5745 5743 5740 5737
5849 5848 5847 5846 5845 5843 5842 5841 5840 5838 5836 5833 5831 5833 5827 5825 5823 5820 5817 5814 5810 5807 5803 5799 5795 5791 5788 5784 5780 5776 5772 5769 5765 5762 5758 5755 5752 5750 5747 5743 5741 5738 5735 5732
5846 5845 5844 5843 5844 5842 5840 5838 5837 5835 5833 5831 5829 5829 5824 5822 5819 5816 5814 5810 5807 5803 5799 5795 5791 5787 5783 5779 5776 5772 5768 5765 5762 5758 5754 5752 5749 5746 5742 5739 5736 5734 5731 5727
5843 5842 5842 5841 5839 5837 5837 5836 5834 5833 5831 5828 5826 5824 5822 5819 5817 5813 5810 5807 5803 5799 5795 5791 5787 5784 5780 5776 5772 5768 5765 5761 5758 5754 5751 5748 5745 5742 5739 5735 5732 5729 5726 5722
5840 5840 5838 5837 5835 5834 5833 5832 5831 5830 5828 5826 5824 5821 5819 5816 5813 5810 5806 5803 5800 5796 5792 5787 5783 5780 5776 5772 5768 5765 5761 5757 5754 5751 5747 5744 5741 5738 5735 5731 5728 5724 5721 5717
5837 5836 5835 5834 5833 5831 5830 5829 5827 5826 5824 5822 5820 5818 5816 5813 5809 5807 5803 5800 5797 5792 5788 5784 5780 5776 5773 5769 5765 5761 5758 5754 5750 5747 5743 5740 5737 5734 5730 5727 5723 5719 5716 5712
5833 5832 5831 5830 5829 5828 5827 5825 5824 5823 5821 5819 5816 5815 5812 5809 5807 5803 5800 5797 5793 5789 5785 5782 5777 5773 5769 5766 5762 5758 5754 5751 5747 5744 5740 5736 5733 5729 5726 5722 5718 5714 5710 5706
5829 5827 5826 5826 5826 5824 5825 5821 5820 5818 5816 5814 5812 5810 5808 5805 5802 5799 5796 5793 5789 5786 5782 5778 5774 5770 5766 5762 5758 5755 5751 5748 5744 5740 5737 5733 5729 5725 5721 5717 5713 5709 5705 5701
5825 5823 5822 5821 5820 5820 5819 5817 5815 5814 5812 5810 5808 5806 5804 5801 5798 5795 5792 5789 5785 5782 5778 5774 5770 5766 5762 5759 5755 5752 5748 5745 5741 5737 5733 5729 5725 5721 5717 5714 5710 5705 5701 5697
5820 5819 5818 5816 5815 5814 5815 5813 5811 5810 5807 5806 5804 5801 5799 5796 5794 5792 5788 5784 5781 5777 5774 5770 5766 5762 5759 5755 5752 5748 5745 5741 5737 5734 5730 5727 5722 5718 5714 5710 5706 5702 5698 5693
5815 5813 5812 5811 5810 5809 5809 5807 5806 5805 5805 5801 5799 5797 5794 5791 5789 5786 5782 5779 5776 5773 5769 5766 5762 5758 5755 5751 5748 5745 5741 5738 5734 5731 5727 5723 5720 5716 5711 5707 5703 5699 5695 5691
5808 5808 5807 5806 5805 5806 5803 5802 5801 5800 5798 5796 5794 5792 5789 5786 5784 5781 5778 5775 5771 5769 5765 5762 5758 5754 5751 5748 5744 5741 5738 5735 5731 5728 5724 5721 5717 5713 5709 5705 5700 5696 5692 5689
5803 5803 5802 5802 5802 5799 5798 5797 5795 5794 5792 5791 5789 5787 5784 5782 5779 5776 5773 5770 5767 5764 5761 5757 5754 5751 5748 5744 5741 5738 5735 5731 5728 5725 5721 5718 5714 5710 5706 5702 5699 5695 5691 5687
5798 5797 5796 5795 5794 5793 5792 5791 5790 5788 5787 5785 5783 5781 5779 5777 5774 5771 5768 5765 5762 5759 5756 5753 5750 5747 5744 5741 5738 5735 5731 5728 5725 5722 5718 5715 5712 5708 5704 5701 5697 5693 5689 5685
5791 5791 5790 5789 5788 5787 5786 5785 5784 5782 5780 5779 5777 5775 5773 5771 5768 5766 5763 5760 5757 5754 5752 5749 5746 5744 5741 5738 5735 5731 5728 5725 5722 5719 5716 5712 5709 5706 5702 5699 5695 5692 5688 5684
5784 5783 5783 5782 5782 5781 5780 5779 5778 5776 5774 5773 5771 5769 5767 5764 5762 5760 5757 5755 5752 5750 5747 5744 5742 5739 5737 5734 5731 5728 5725 5721 5718 5716 5713 5710 5707 5704 5700 5697 5694 5691 5687 5683